Time,TemperatureF,DewpointF,PressureIn,WindDirection,WindDirectionDegrees,WindSpeedMPH,WindSpeedGustMPH,Humidity,HourlyPrecipIn,Conditions,Clouds,dailyrainin,SoftwareType,DateUTC
2013-10-06 00:03:00,58.2,57.0,30.13,ESE,112,0.0,0.0,96,0.00,,,0.00,weatherlink.com 1.10,2013-10-06 04:03:00,
2013-10-06 00:18:00,58.5,57.0,30.12,ESE,113,0.0,0.0,96,0.00,,,0.00,weatherlink.com 1.10,2013-10-06 04:18:00,
2013-10-06 00:33:00,58.8,58.0,30.12,ESE,113,0.0,0.0,96,0.00,,,0.00,weatherlink.com 1.10,2013-10-06 04:33:00,
2013-10-06 00:49:00,58.9,58.0,30.13,ESE,113,0.0,0.0,96,0.00,,,0.00,weatherlink.com 1.10,2013-10-06 04:49:00,
2013-10-06 01:03:00,58.9,58.0,30.12,ESE,112,0.0,0.0,96,0.00,,,0.00,weatherlink.com 1.10,2013-10-06 05:03:00,
2013-10-06 01:18:00,58.8,58.0,30.13,ESE,113,0.0,0.0,96,0.00,,,0.00,weatherlink.com 1.10,2013-10-06 05:18:00,
2013-10-06 01:33:00,58.8,58.0,30.12,ESE,113,0.0,0.0,96,0.00,,,0.00,weatherlink.com 1.10,2013-10-06 05:33:00,
2013-10-06 01:48:00,58.6,58.0,30.13,ESE,111,0.0,0.0,96,0.00,,,0.00,weatherlink.com 1.10,2013-10-06 05:48:00,
2013-10-06 02:03:00,58.3,57.0,30.13,ESE,112,0.0,0.0,96,0.00,,,0.00,weatherlink.com 1.10,2013-10-06 06:03:00,
2013-10-06 02:18:00,58.4,57.0,30.13,ESE,112,0.0,1.0,96,0.00,,,0.00,weatherlink.com 1.10,2013-10-06 06:18:00,
2013-10-06 02:33:00,58.3,57.0,30.12,ESE,112,0.0,0.0,96,0.00,,,0.00,weatherlink.com 1.10,2013-10-06 06:33:00,
2013-10-06 02:48:00,58.3,57.0,30.12,ESE,112,0.0,0.0,96,0.00,,,0.00,weatherlink.com 1.10,2013-10-06 06:48:00,
2013-10-06 03:03:00,58.4,57.0,30.12,ESE,112,0.0,0.0,96,0.00,,,0.00,weatherlink.com 1.10,2013-10-06 07:03:00,
2013-10-06 03:18:00,58.6,58.0,30.12,NE,43,1.0,1.0,96,0.00,,,0.00,weatherlink.com 1.10,2013-10-06 07:18:00,
2013-10-06 03:33:00,58.8,58.0,30.12,NE,44,0.0,1.0,96,0.00,,,0.00,weatherlink.com 1.10,2013-10-06 07:33:00,
2013-10-06 03:48:00,58.9,58.0,30.12,NE,42,0.0,1.0,95,0.00,,,0.00,weatherlink.com 1.10,2013-10-06 07:48:00,
2013-10-06 04:03:00,59.0,58.0,30.12,NE,43,0.0,1.0,95,0.00,,,0.00,weatherlink.com 1.10,2013-10-06 08:03:00,
2013-10-06 04:18:00,59.1,57.0,30.12,NE,43,1.0,3.0,94,0.00,,,0.00,weatherlink.com 1.10,2013-10-06 08:18:00,
2013-10-06 04:33:00,59.1,57.0,30.12,East,89,1.0,1.0,93,0.00,,,0.00,weatherlink.com 1.10,2013-10-06 08:33:00,
2013-10-06 04:48:00,59.1,57.0,30.12,NE,36,0.0,2.0,92,0.00,,,0.00,weatherlink.com 1.10,2013-10-06 08:48:00,
2013-10-06 05:03:00,59.1,57.0,30.13,NE,37,0.0,1.0,91,0.00,,,0.00,weatherlink.com 1.10,2013-10-06 09:03:00,
2013-10-06 05:18:00,59.2,57.0,30.14,NW,316,0.0,1.0,91,0.00,,,0.00,weatherlink.com 1.10,2013-10-06 09:18:00,
2013-10-06 05:33:00,59.2,57.0,30.14,North,9,0.0,0.0,91,0.00,,,0.00,weatherlink.com 1.10,2013-10-06 09:33:00,
2013-10-06 05:48:00,59.3,57.0,30.14,NNE,23,0.0,2.0,91,0.00,,,0.00,weatherlink.com 1.10,2013-10-06 09:48:00,
2013-10-06 06:03:00,59.4,57.0,30.14,NNE,30,2.0,4.0,92,0.00,,,0.00,weatherlink.com 1.10,2013-10-06 10:03:00,
2013-10-06 06:18:00,59.5,57.0,30.14,NE,40,0.0,2.0,92,0.00,,,0.00,weatherlink.com 1.10,2013-10-06 10:18:00,
2013-10-06 06:33:00,59.5,57.0,30.15,WNW,285,0.0,2.0,92,0.00,,,0.00,weatherlink.com 1.10,2013-10-06 10:33:00,
2013-10-06 06:48:00,59.5,57.0,30.15,NE,36,0.0,2.0,92,0.00,,,0.00,weatherlink.com 1.10,2013-10-06 10:48:00,
2013-10-06 07:03:00,59.7,57.0,30.15,East,88,1.0,3.0,92,0.00,,,0.00,weatherlink.com 1.10,2013-10-06 11:03:00,
2013-10-06 07:18:00,59.8,57.0,30.16,NE,43,0.0,1.0,91,0.00,,,0.00,weatherlink.com 1.10,2013-10-06 11:18:00,
2013-10-06 07:33:00,59.9,57.0,30.17,NE,42,0.0,0.0,91,0.00,,,0.00,weatherlink.com 1.10,2013-10-06 11:33:00,
2013-10-06 07:48:00,59.9,58.0,30.17,NNE,27,0.0,0.0,92,0.00,,,0.00,weatherlink.com 1.10,2013-10-06 11:48:00,
2013-10-06 08:03:00,60.0,58.0,30.17,ENE,65,0.0,2.0,92,0.00,,,0.00,weatherlink.com 1.10,2013-10-06 12:03:00,
2013-10-06 08:19:00,60.1,58.0,30.17,ESE,111,0.0,1.0,92,0.00,,,0.00,weatherlink.com 1.10,2013-10-06 12:19:00,
2013-10-06 08:34:00,60.3,58.0,30.18,ENE,57,0.0,2.0,92,0.00,,,0.00,weatherlink.com 1.10,2013-10-06 12:34:00,
2013-10-06 08:49:00,60.7,58.0,30.18,NE,49,0.0,2.0,92,0.00,,,0.00,weatherlink.com 1.10,2013-10-06 12:49:00,
2013-10-06 09:04:00,60.9,59.0,30.18,NE,49,0.0,2.0,92,0.00,,,0.00,weatherlink.com 1.10,2013-10-06 13:04:00,
2013-10-06 09:19:00,61.1,59.0,30.19,NE,46,0.0,4.0,92,0.00,,,0.00,weatherlink.com 1.10,2013-10-06 13:19:00,
2013-10-06 09:34:00,61.2,59.0,30.19,East,80,0.0,2.0,93,0.00,,,0.00,weatherlink.com 1.10,2013-10-06 13:34:00,
2013-10-06 09:49:00,61.4,59.0,30.19,East,82,0.0,1.0,93,0.00,,,0.00,weatherlink.com 1.10,2013-10-06 13:49:00,
2013-10-06 10:04:00,61.8,60.0,30.20,NE,40,1.0,2.0,93,0.01,,,0.01,weatherlink.com 1.10,2013-10-06 14:04:00,
2013-10-06 10:19:00,62.0,60.0,30.19,NNE,27,2.0,3.0,92,0.01,,,0.01,weatherlink.com 1.10,2013-10-06 14:19:00,
2013-10-06 10:34:00,62.3,59.0,30.19,ESE,117,2.0,4.0,89,0.01,,,0.01,weatherlink.com 1.10,2013-10-06 14:34:00,
2013-10-06 10:49:00,62.6,58.0,30.20,East,96,0.0,4.0,85,0.01,,,0.01,weatherlink.com 1.10,2013-10-06 14:49:00,
2013-10-06 11:04:00,62.7,58.0,30.20,NE,53,1.0,4.0,84,0.00,,,0.01,weatherlink.com 1.10,2013-10-06 15:04:00,
2013-10-06 11:19:00,62.6,58.0,30.20,NE,34,4.0,4.0,84,0.00,,,0.01,weatherlink.com 1.10,2013-10-06 15:19:00,
2013-10-06 11:34:00,62.2,58.0,30.20,NE,44,0.0,4.0,85,0.00,,,0.01,weatherlink.com 1.10,2013-10-06 15:34:00,
2013-10-06 11:49:00,61.8,58.0,30.20,ENE,62,1.0,4.0,87,0.01,,,0.02,weatherlink.com 1.10,2013-10-06 15:49:00,
2013-10-06 12:04:00,61.3,58.0,30.20,NE,38,0.0,3.0,89,0.02,,,0.03,weatherlink.com 1.10,2013-10-06 16:04:00,
2013-10-06 12:19:00,61.0,58.0,30.20,ENE,75,1.0,3.0,91,0.03,,,0.04,weatherlink.com 1.10,2013-10-06 16:19:00,
2013-10-06 12:34:00,60.8,58.0,30.20,ENE,60,0.0,4.0,89,0.03,,,0.04,weatherlink.com 1.10,2013-10-06 16:34:00,
2013-10-06 12:49:00,60.5,57.0,30.19,ENE,69,1.0,4.0,88,0.02,,,0.04,weatherlink.com 1.10,2013-10-06 16:49:00,
2013-10-06 13:04:00,60.5,57.0,30.18,NNE,27,3.0,6.0,87,0.01,,,0.04,weatherlink.com 1.10,2013-10-06 17:04:00,
2013-10-06 13:19:00,60.6,56.0,30.19,SSW,213,0.0,8.0,85,0.00,,,0.04,weatherlink.com 1.10,2013-10-06 17:19:00,
2013-10-06 13:34:00,60.8,56.0,30.18,NNW,342,0.0,8.0,85,0.00,,,0.04,weatherlink.com 1.10,2013-10-06 17:34:00,
2013-10-06 13:49:00,60.8,56.0,30.17,NNE,27,0.0,4.0,84,0.00,,,0.04,weatherlink.com 1.10,2013-10-06 17:49:00,
2013-10-06 14:04:00,61.1,57.0,30.17,NE,39,0.0,5.0,86,0.00,,,0.04,weatherlink.com 1.10,2013-10-06 18:04:00,
2013-10-06 14:19:00,61.5,58.0,30.17,NNE,32,3.0,7.0,88,0.00,,,0.04,weatherlink.com 1.10,2013-10-06 18:19:00,
2013-10-06 14:34:00,61.4,58.0,30.17,SE,133,3.0,6.0,89,0.01,,,0.05,weatherlink.com 1.10,2013-10-06 18:34:00,
2013-10-06 14:49:00,61.0,58.0,30.17,ENE,68,2.0,8.0,91,0.01,,,0.05,weatherlink.com 1.10,2013-10-06 18:49:00,
2013-10-06 15:04:00,60.5,58.0,30.18,NNE,32,2.0,4.0,91,0.01,,,0.05,weatherlink.com 1.10,2013-10-06 19:04:00,
2013-10-06 15:19:00,60.3,57.0,30.18,ENE,68,0.0,5.0,90,0.01,,,0.05,weatherlink.com 1.10,2013-10-06 19:19:00,
2013-10-06 15:34:00,60.4,57.0,30.18,ENE,61,0.0,8.0,89,0.00,,,0.05,weatherlink.com 1.10,2013-10-06 19:34:00,
2013-10-06 15:49:00,60.5,57.0,30.18,NE,49,2.0,5.0,88,0.00,,,0.05,weatherlink.com 1.10,2013-10-06 19:49:00,
2013-10-06 16:04:00,60.4,57.0,30.17,East,91,1.0,3.0,88,0.00,,,0.05,weatherlink.com 1.10,2013-10-06 20:04:00,
2013-10-06 16:19:00,60.3,57.0,30.17,East,83,2.0,3.0,88,0.00,,,0.05,weatherlink.com 1.10,2013-10-06 20:19:00,
2013-10-06 16:34:00,60.3,56.0,30.17,SE,146,3.0,5.0,86,0.00,,,0.05,weatherlink.com 1.10,2013-10-06 20:34:00,
2013-10-06 16:49:00,60.1,56.0,30.17,NNE,25,0.0,5.0,86,0.00,,,0.05,weatherlink.com 1.10,2013-10-06 20:49:00,
2013-10-06 17:04:00,59.9,56.0,30.17,North,359,2.0,6.0,86,0.00,,,0.05,weatherlink.com 1.10,2013-10-06 21:04:00,
2013-10-06 17:19:00,59.8,56.0,30.17,ESE,119,1.0,5.0,86,0.00,,,0.05,weatherlink.com 1.10,2013-10-06 21:19:00,
2013-10-06 17:34:00,59.6,56.0,30.17,East,83,0.0,5.0,86,0.00,,,0.05,weatherlink.com 1.10,2013-10-06 21:34:00,
2013-10-06 17:49:00,59.6,56.0,30.17,SE,144,2.0,7.0,86,0.00,,,0.05,weatherlink.com 1.10,2013-10-06 21:49:00,
2013-10-06 18:04:00,59.6,56.0,30.17,SSE,156,0.0,4.0,86,0.00,,,0.05,weatherlink.com 1.10,2013-10-06 22:04:00,
2013-10-06 18:19:00,59.6,56.0,30.17,West,276,0.0,5.0,87,0.00,,,0.05,weatherlink.com 1.10,2013-10-06 22:19:00,
2013-10-06 18:34:00,59.7,56.0,30.17,North,350,1.0,2.0,87,0.00,,,0.05,weatherlink.com 1.10,2013-10-06 22:34:00,
2013-10-06 18:49:00,59.7,56.0,30.17,North,352,1.0,3.0,88,0.00,,,0.05,weatherlink.com 1.10,2013-10-06 22:49:00,
2013-10-06 19:04:00,59.9,57.0,30.17,NNE,28,0.0,5.0,89,0.00,,,0.05,weatherlink.com 1.10,2013-10-06 23:04:00,
2013-10-06 19:19:00,60.3,57.0,30.17,SSE,156,0.0,7.0,90,0.00,,,0.05,weatherlink.com 1.10,2013-10-06 23:19:00,
2013-10-06 19:34:00,60.7,58.0,30.17,SSE,160,2.0,6.0,89,0.00,,,0.05,weatherlink.com 1.10,2013-10-06 23:34:00,
2013-10-06 19:49:00,61.0,58.0,30.17,West,263,0.0,5.0,89,0.00,,,0.05,weatherlink.com 1.10,2013-10-06 23:49:00,
2013-10-06 20:04:00,61.1,58.0,30.17,SSE,153,1.0,5.0,90,0.00,,,0.05,weatherlink.com 1.10,2013-10-07 00:04:00,
2013-10-06 20:19:00,61.1,59.0,30.17,SW,220,1.0,6.0,91,0.00,,,0.05,weatherlink.com 1.10,2013-10-07 00:19:00,
2013-10-06 20:34:00,60.9,59.0,30.16,NNE,24,0.0,3.0,92,0.00,,,0.05,weatherlink.com 1.10,2013-10-07 00:34:00,
2013-10-06 20:49:00,61.0,59.0,30.17,South,180,0.0,5.0,93,0.00,,,0.05,weatherlink.com 1.10,2013-10-07 00:49:00,
2013-10-06 21:05:00,61.0,59.0,30.16,ESE,122,1.0,4.0,94,0.01,,,0.06,weatherlink.com 1.10,2013-10-07 01:05:00,
2013-10-06 21:19:00,61.0,60.0,30.17,ENE,78,1.0,5.0,95,0.02,,,0.07,weatherlink.com 1.10,2013-10-07 01:19:00,
2013-10-06 21:34:00,61.1,60.0,30.16,ENE,77,0.0,3.0,95,0.02,,,0.07,weatherlink.com 1.10,2013-10-07 01:34:00,
2013-10-06 21:49:00,61.2,60.0,30.15,SSW,192,1.0,3.0,96,0.03,,,0.08,weatherlink.com 1.10,2013-10-07 01:49:00,
2013-10-06 22:04:00,61.3,60.0,30.15,SW,228,0.0,2.0,96,0.02,,,0.08,weatherlink.com 1.10,2013-10-07 02:04:00,
2013-10-06 22:19:00,61.6,61.0,30.15,SSW,193,1.0,4.0,96,0.02,,,0.09,weatherlink.com 1.10,2013-10-07 02:19:00,
2013-10-06 22:34:00,61.6,61.0,30.14,West,281,0.0,5.0,96,0.02,,,0.09,weatherlink.com 1.10,2013-10-07 02:34:00,
2013-10-06 22:49:00,61.8,61.0,30.14,SSW,198,0.0,2.0,96,0.02,,,0.10,weatherlink.com 1.10,2013-10-07 02:49:00,
2013-10-06 23:04:00,61.9,61.0,30.14,ESE,122,0.0,4.0,96,0.02,,,0.10,weatherlink.com 1.10,2013-10-07 03:04:00,
2013-10-06 23:19:00,62.1,61.0,30.13,SSE,164,0.0,2.0,96,0.01,,,0.10,weatherlink.com 1.10,2013-10-07 03:19:00,
2013-10-06 23:34:00,62.1,61.0,30.13,SSE,164,0.0,0.0,96,0.01,,,0.10,weatherlink.com 1.10,2013-10-07 03:34:00,
2013-10-06 23:49:00,62.1,61.0,30.12,ESE,122,0.0,1.0,96,0.00,,,0.10,weatherlink.com 1.10,2013-10-07 03:49:00,